Weather History for Kaneohe MCBH, HI

Change the Weather History Date:

Friday, April 18, 2014

  Actual Average Record
Temperature  
Mean Temperature 74 °F -  
Max Temperature 80 °F 76 °F 82 °F (2012)
Min Temperature 69 °F 68 °F 63 °F (2009)
Cooling Degree Days 10    
Growing Degree Days 24 (Base 50)    
Moisture  
Dew Point 66 °F    
Average Humidity 73    
Maximum Humidity 88    
Minimum Humidity 61    
Precipitation  
Precipitation 0.00 in - - ()
Sea Level Pressure  
Sea Level Pressure 30.10 in    
Wind  
Wind Speed 9 mph (ENE)    
Max Wind Speed 14 mph    
Max Gust Speed 24 mph    
Visibility 6 miles    
Events Rain    
Averages and records for this station are not official NWS values.
T = Trace of Precipitation, MM = Missing Value Source: NWS Daily Summary

Daily Weather History Graph

Daily Weather History Graph

Search for Another Location

Airport:

Trip Planner

Search our weather history database for the weather conditions in past years. The results will help you decide how hot, cold, wet, or windy it might be!

Date:

Astronomy

Apr. 18, 2014 Rise Set
Actual Time 6:09 AM HST 6:51 PM HST
Civil Twilight 5:46 AM HST 7:14 PM HST
Nautical Twilight 5:19 AM HST 7:41 PM HST
Astronomical Twilight 4:52 AM HST 8:08 PM HST
Moon 10:31 PM HST (4/18) 8:57 AM HST (4/18)
Length of Visible Light 13h 28m
Length of Day
12h 42m
Waning Gibbous, 85% of the Moon is Illuminated
Apr 18
Waning Gibbous
Apr 21
Last Quarter
Apr 28
New
May 6
First Quarter
May 14
Full

Hourly Weather History & Observations

Time (HST) Temp. Heat Index Dew Point Humidity Pressure Visibility Wind Dir Wind Speed Gust Speed Precip Events Conditions
12:57 AM 71.6 °F - 66.0 °F 82% 30.11 in 6.0 mi ENE 8.1 mph - N/A   Haze
1:40 AM - - - N/A% 30.11 in 6.0 mi NE 9.2 mph - N/A   Haze
1:57 AM - - - N/A% 30.08 in 6.0 mi ENE 10.4 mph 16.1 mph N/A   Haze
2:57 AM - - - N/A% 30.08 in 7.0 mi NE 9.2 mph - N/A   Scattered Clouds
3:04 AM - - - N/A% 30.08 in 6.2 mi ENE 9.2 mph - N/A   Mostly Cloudy
3:26 AM - - - N/A% 30.09 in 6.2 mi NE 9.2 mph - N/A   Scattered Clouds
3:41 AM - - - N/A% 30.09 in 6.0 mi NE 9.2 mph - N/A   Haze
3:48 AM 69.8 °F - 66.2 °F 88% 30.08 in 6.2 mi NE 9.2 mph - N/A   Scattered Clouds
3:57 AM 69.8 °F - 66.0 °F 88% 30.08 in 7.0 mi NE 10.4 mph 16.1 mph N/A   Scattered Clouds
4:57 AM 69.8 °F - 66.0 °F 88% 30.07 in 7.0 mi ENE 8.1 mph - N/A   Mostly Cloudy
5:57 AM 69.8 °F - 66.0 °F 88% 30.09 in 7.0 mi East 8.1 mph - N/A   Scattered Clouds
6:35 AM 69.8 °F - 66.2 °F 88% 30.11 in 6.2 mi ENE 6.9 mph - N/A   Mostly Cloudy
6:53 AM 69.8 °F - 66.2 °F 88% 30.12 in 6.2 mi East 6.9 mph - N/A   Scattered Clouds
6:57 AM 69.8 °F - 66.0 °F 88% 30.11 in 7.0 mi ENE 4.6 mph - N/A   Scattered Clouds
7:57 AM 69.8 °F - 66.0 °F 88% 30.12 in 7.0 mi ENE 8.1 mph - N/A   Mostly Cloudy
8:20 AM 71.6 °F - 66.2 °F 83% 30.14 in 6.2 mi ENE 3.5 mph - N/A   Overcast
8:57 AM 75.2 °F - 66.9 °F 75% 30.14 in 7.0 mi ENE 11.5 mph 19.6 mph N/A   Mostly Cloudy
9:28 AM 75.2 °F - 68.0 °F 78% 30.14 in 6.2 mi East 10.4 mph 18.4 mph N/A   Mostly Cloudy
9:57 AM 75.2 °F - 68.0 °F 78% 30.13 in 7.0 mi ENE 9.2 mph 17.3 mph N/A   Mostly Cloudy
10:57 AM 80.6 °F 83.2 °F 68.0 °F 65% 30.13 in 7.0 mi ENE 8.1 mph 21.9 mph N/A   Mostly Cloudy
11:57 AM 80.6 °F 82.7 °F 66.0 °F 61% 30.12 in 7.0 mi ENE 10.4 mph - N/A   Overcast
12:57 PM 80.6 °F 82.9 °F 66.9 °F 63% 30.11 in 7.0 mi East 10.4 mph - N/A   Overcast
1:57 PM 80.6 °F 82.7 °F 66.0 °F 61% 30.09 in 7.0 mi ENE 10.4 mph 19.6 mph N/A   Mostly Cloudy
2:57 PM 80.6 °F 82.7 °F 66.0 °F 61% 30.07 in 7.0 mi ENE 11.5 mph 19.6 mph N/A   Mostly Cloudy
3:50 PM 80.6 °F 82.7 °F 66.2 °F 61% 30.08 in 6.2 mi ENE 11.5 mph 18.4 mph N/A   Scattered Clouds
3:57 PM 80.6 °F 82.9 °F 66.9 °F 63% 30.06 in 7.0 mi NE 9.2 mph 19.6 mph N/A   Mostly Cloudy
4:04 PM 80.6 °F 82.7 °F 66.2 °F 61% 30.08 in 6.2 mi ENE 10.4 mph 16.1 mph N/A   Mostly Cloudy
4:29 PM 80.6 °F 82.7 °F 66.2 °F 61% 30.08 in 6.2 mi ENE 9.2 mph 17.3 mph N/A   Mostly Cloudy
4:57 PM 80.6 °F 82.9 °F 66.9 °F 63% 30.06 in 7.0 mi ENE 10.4 mph 19.6 mph N/A   Mostly Cloudy
5:29 PM 78.8 °F - 64.4 °F 61% 30.08 in 4.0 mi ENE 9.2 mph 20.7 mph N/A Rain Light Rain
5:43 PM 78.8 °F - 64.4 °F 61% 30.08 in 5.0 mi ENE 10.4 mph 17.3 mph N/A   Haze
5:57 PM 77.0 °F - 64.9 °F 66% 30.07 in 7.0 mi ENE 10.4 mph 18.4 mph N/A   Overcast
6:57 PM 75.2 °F - 64.9 °F 70% 30.08 in 7.0 mi East 13.8 mph 24.2 mph N/A   Overcast
7:57 PM 73.4 °F - 64.9 °F 75% 30.09 in 7.0 mi ENE 10.4 mph 18.4 mph N/A   Overcast
8:49 PM 73.4 °F - 64.4 °F 73% 30.12 in 6.2 mi ENE 8.1 mph 17.3 mph N/A   Mostly Cloudy
8:57 PM 73.4 °F - 64.0 °F 72% 30.11 in 7.0 mi ENE 11.5 mph 17.3 mph N/A   Mostly Cloudy
9:57 PM 73.4 °F - 64.0 °F 72% 30.12 in 6.0 mi ENE 10.4 mph 16.1 mph N/A   Haze
10:57 PM 73.0 °F - 63.0 °F 71% 30.12 in 7.0 mi ENE 8.1 mph - N/A   Mostly Cloudy
11:21 PM 73.4 °F - 62.6 °F 69% 30.13 in 6.2 mi ENE 9.2 mph 18.4 mph N/A   Scattered Clouds
11:57 PM 73.0 °F - 63.0 °F 71% 30.11 in 7.0 mi ENE 9.2 mph 18.4 mph N/A   Partly Cloudy